DW3940 Weather Reports


Display with metric or nautical units.
time (UTC)temp
F
wind
direction
speed
MPH
gust
MPH
rain 1hr
in
rain 24hr
in
rain mn
in
humidity
%
barometer
mb
20190121152320 14 282 3.0 7.0 0.00 0.00 0.00 82 1007.1
20190121151820 14 280 2.0 8.0 0.00 0.00 0.00 82 1007.1
20190121151320 14 279 3.0 8.0 0.00 0.00 0.00 82 1007.1
20190121150820 15 283 3.0 7.0 0.00 0.00 0.00 81 1007.1
20190121150322 15 281 3.0 7.0 0.00 0.00 0.00 81 1007.1
20190121145822 15 283 2.0 7.0 0.00 0.00 0.00 80 1007.1
20190121145322 16 271 2.0 5.0 0.00 0.00 0.00 80 1007.0
20190121144822 16 276 1.0 4.0 0.00 0.00 0.00 80 1007.0
20190121144321 15 280 1.0 6.0 0.00 0.00 0.00 80 1007.0
20190121143822 15 288 1.0 7.0 0.00 0.00 0.00 79 1007.0
20190121143321 15 286 2.0 8.0 0.00 0.00 0.00 79 1006.9
20190121142822 15 296 3.0 8.0 0.00 0.00 0.00 78 1007.0
20190121142322 15 280 3.0 8.0 0.00 0.00 0.00 78 1006.9
20190121141821 15 281 3.0 7.0 0.00 0.00 0.00 77 1006.8
20190121141322 15 283 3.0 8.0 0.00 0.00 0.00 77 1006.9
20190121140822 15 291 3.0 8.0 0.00 0.00 0.00 77 1006.8
20190121140322 15 286 3.0 8.0 0.00 0.00 0.00 76 1006.7
20190121135821 15 288 3.0 8.0 0.00 0.00 0.00 76 1006.7
20190121135322 15 283 4.0 8.0 0.00 0.00 0.00 76 1006.7
20190121134821 16 282 3.0 8.0 0.00 0.00 0.00 75 1006.7
20190121134321 16 283 3.0 8.0 0.00 0.00 0.00 74 1006.7
20190121133822 16 284 3.0 10.0 0.00 0.00 0.00 74 1006.7
20190121133322 16 295 4.0 10.0 0.00 0.00 0.00 74 1006.6
20190121132822 16 296 3.0 9.0 0.00 0.00 0.00 73 1006.6
20190121132322 16 280 4.0 9.0 0.00 0.00 0.00 73 1006.6
20190121131822 16 280 5.0 11.0 0.00 0.00 0.00 72 1006.5
20190121131321 17 288 5.0 12.0 0.00 0.00 0.00 72 1006.5
20190121130822 17 290 5.0 14.0 0.00 0.00 0.00 72 1006.5
20190121130322 17 291 5.0 14.0 0.00 0.00 0.00 71 1006.4
20190121125822 17 290 7.0 13.0 0.00 0.00 0.00 71 1006.4
20190121125321 17 287 6.0 16.0 0.00 0.00 0.00 72 1006.4
20190121124822 17 293 6.0 16.0 0.00 0.00 0.00 72 1006.3
20190121124321 17 287 5.0 12.0 0.00 0.00 0.00 73 1006.3
20190121123822 17 282 5.0 12.0 0.00 0.00 0.00 73 1006.4
20190121123322 18 298 4.0 11.0 0.00 0.00 0.00 73 1006.4
20190121122822 18 293 3.0 12.0 0.00 0.00 0.00 73 1006.2
20190121122321 18 285 6.0 12.0 0.00 0.00 0.00 72 1006.2
20190121121821 18 282 4.0 10.0 0.00 0.00 0.00 74 1006.2
20190121121321 18 294 4.0 11.0 0.00 0.00 0.00 75 1006.1
20190121120822 18 286 5.0 11.0 0.00 0.00 0.00 76 1006.2
20190121120322 18 285 5.0 11.0 0.00 0.00 0.00 77 1006.2
20190121115821 18 274 2.0 11.0 0.00 0.00 0.00 79 1006.2
20190121115323 18 298 5.0 11.0 0.00 0.00 0.00 78 1006.1
20190121114822 18 288 3.0 11.0 0.00 0.00 0.00 78 1006.1
20190121114321 18 296 4.0 12.0 0.00 0.00 0.00 78 1006.1
20190121113821 18 288 5.0 12.0 0.00 0.00 0.00 77 1006.1
20190121113323 18 289 3.0 11.0 0.00 0.00 0.00 78 1006.2
20190121112821 18 283 2.0 8.0 0.00 0.00 0.00 80 1006.1
20190121112322 18 284 3.0 9.0 0.00 0.00 0.00 81 1006.2
20190121111821 18 291 3.0 9.0 0.00 0.00 0.00 79 1006.1
20190121111321 18 280 3.0 9.0 0.00 0.00 0.00 78 1006.2
20190121110821 18 291 2.0 12.0 0.00 0.00 0.00 78 1006.3
20190121110321 18 282 5.0 12.0 0.00 0.00 0.00 76 1006.2
20190121105825 19 282 5.0 10.0 0.00 0.00 0.00 76 1006.1
20190121105321 19 282 3.0 9.0 0.00 0.00 0.00 75 1006.1
20190121104821 19 281 3.0 9.0 0.00 0.00 0.00 75 1006.1
20190121104321 19 310 1.0 8.0 0.00 0.00 0.00 77 1006.1
20190121103821 19 277 3.0 9.0 0.00 0.00 0.00 75 1006.2
20190121103322 18 281 4.0 11.0 0.00 0.00 0.00 75 1006.1
20190121102822 18 288 5.0 12.0 0.00 0.00 0.00 74 1006.1
20190121102321 18 288 6.0 13.0 0.00 0.00 0.00 73 1006.1
20190121101821 18 284 6.0 13.0 0.00 0.00 0.00 73 1006.2
20190121101321 18 288 6.0 13.0 0.00 0.00 0.00 74 1006.1
20190121100821 19 282 6.0 13.0 0.00 0.00 0.00 73 1006.2
20190121100321 19 287 4.0 12.0 0.00 0.00 0.00 74 1006.1
20190121095821 19 299 5.0 14.0 0.00 0.00 0.00 74 1006.4
20190121095324 19 292 7.0 14.0 0.00 0.00 0.00 76 1006.3
20190121094821 19 281 4.0 10.0 0.00 0.00 0.00 78 1006.4
20190121094321 19 295 3.0 9.0 0.00 0.00 0.00 78 1006.3
20190121093821 19 289 3.0 11.0 0.00 0.00 0.00 77 1006.3
20190121093321 19 290 4.0 11.0 0.00 0.00 0.00 77 1006.3
20190121092821 19 283 4.0 9.0 0.00 0.00 0.00 77 1006.3
20190121092321 19 286 4.0 9.0 0.00 0.00 0.00 77 1006.4
20190121091821 19 294 3.0 10.0 0.00 0.00 0.00 78 1006.4
20190121091321 19 293 4.0 10.0 0.00 0.00 0.00 78 1006.4
20190121090821 19 283 4.0 10.0 0.00 0.00 0.00 77 1006.4
20190121090322 19 271 3.0 8.0 0.00 0.00 0.00 77 1006.4
20190121085821 20 281 3.0 8.0 0.00 0.00 0.00 76 1006.4
20190121085321 20 311 2.0 7.0 0.00 0.00 0.00 78 1006.4
20190121084824 19 288 3.0 10.0 0.00 0.00 0.00 76 1006.4
20190121084321 19 295 3.0 10.0 0.00 0.00 0.00 77 1006.4
20190121083821 20 286 2.0 7.0 0.00 0.00 0.00 76 1006.5
20190121083321 19 280 1.0 15.0 0.00 0.00 0.00 77 1006.5
20190121082821 19 292 4.0 15.0 0.00 0.00 0.00 76 1006.4
20190121082321 19 281 5.0 11.0 0.00 0.00 0.00 76 1006.5
20190121081821 19 285 4.0 9.0 0.00 0.00 0.00 76 1006.5
20190121081321 19 279 3.0 8.0 0.00 0.00 0.00 77 1006.5
20190121080821 19 274 3.0 10.0 0.00 0.00 0.00 77 1006.4
20190121080321 19 286 3.0 10.0 0.00 0.00 0.00 77 1006.4
20190121075821 19 290 4.0 12.0 0.00 0.00 0.00 76 1006.5
20190121075321 19 287 4.0 12.0 0.00 0.00 0.00 76 1006.5
20190121074821 19 295 5.0 11.0 0.00 0.00 0.00 77 1006.4
20190121074322 19 284 5.0 12.0 0.00 0.00 0.00 77 1006.5
20190121073821 19 289 5.0 12.0 0.00 0.00 0.00 77 1006.4
20190121073322 19 292 5.0 11.0 0.00 0.00 0.00 76 1006.4
20190121072821 19 293 5.0 12.0 0.00 0.00 0.00 79 1006.3
20190121072321 19 282 6.0 14.0 0.00 0.00 0.00 77 1006.3
20190121071821 19 282 7.0 14.0 0.00 0.00 0.00 77 1006.3
20190121071321 19 291 5.0 12.0 0.00 0.00 0.00 78 1006.3
20190121070821 19 285 6.0 16.0 0.00 0.00 0.00 79 1006.2
20190121070321 19 284 6.0 16.0 0.00 0.00 0.00 80 1006.2
20190121065821 20 285 4.0 11.0 0.00 0.00 0.00 81 1006.2
20190121065321 20 284 5.0 11.0 0.00 0.00 0.00 81 1006.2
20190121064821 20 294 3.0 11.0 0.00 0.00 0.00 81 1006.2
20190121064321 20 285 3.0 9.0 0.00 0.00 0.00 82 1006.1
20190121063821 20 294 3.0 9.0 0.00 0.00 0.00 82 1006.0
20190121063321 20 291 3.0 10.0 0.00 0.00 0.00 82 1006.0
20190121062821 20 288 3.0 10.0 0.00 0.00 0.00 82 1006.0
20190121062321 20 282 3.0 11.0 0.00 0.00 0.00 82 1006.0
20190121061821 20 284 3.0 11.0 0.00 0.00 0.00 83 1005.8
20190121061321 20 270 3.0 9.0 0.00 0.00 0.00 84 1005.9
20190121060821 20 275 3.0 9.0 0.00 0.00 0.00 84 1005.9
20190121060321 21 270 3.0 8.0 0.00 0.00 0.00 84 1005.8
20190121055821 21 280 2.0 7.0 0.00 0.00 0.00 84 1005.9
20190121055321 21 285 1.0 7.0 0.00 0.00 0.00 85 1005.9
20190121054821 21 302 2.0 8.0 0.00 0.00 0.00 86 1005.8
20190121054322 20 282 3.0 8.0 0.00 0.00 0.00 85 1005.8
20190121053821 20 280 3.0 8.0 0.00 0.00 0.00 85 1005.8
20190121053321 20 282 3.0 8.0 0.00 0.00 0.00 85 1005.8
20190121052820 21 278 3.0 9.0 0.00 0.00 0.00 85 1005.8
20190121052321 20 278 3.0 9.0 0.00 0.00 0.00 85 1005.9
20190121051821 20 280 4.0 9.0 0.00 0.00 0.00 85 1005.8
20190121051321 21 276 3.0 10.0 0.00 0.00 0.00 85 1005.8
20190121050821 21 279 4.0 10.0 0.00 0.00 0.00 84 1005.9
20190121050321 21 276 4.0 10.0 0.00 0.00 0.00 85 1005.8
20190121045821 21 281 5.0 11.0 0.00 0.00 0.00 84 1005.8
20190121045321 21 277 7.0 12.0 0.00 0.00 0.00 84 1005.7
20190121044821 21 279 6.0 12.0 0.00 0.00 0.00 83 1005.7
20190121044321 21 275 5.0 12.0 0.00 0.00 0.00 84 1005.7
20190121043821 21 280 5.0 12.0 0.00 0.00 0.00 83 1005.6
20190121043321 21 276 4.0 11.0 0.00 0.00 0.00 83 1005.7
20190121042821 21 281 5.0 11.0 0.00 0.00 0.00 83 1005.6
20190121042321 22 276 4.0 12.0 0.00 0.00 0.00 82 1005.6
20190121041821 22 281 5.0 12.0 0.00 0.00 0.00 82 1005.5
20190121041320 22 278 5.0 10.0 0.00 0.00 0.00 82 1005.5
20190121040821 22 285 4.0 10.0 0.00 0.00 0.00 82 1005.5
20190121040321 22 288 4.0 14.0 0.00 0.00 0.00 82 1005.5
20190121035821 22 282 5.0 14.0 0.00 0.00 0.00 82 1005.5
20190121035321 23 290 5.0 13.0 0.00 0.00 0.00 81 1005.5
20190121034820 23 281 6.0 15.0 0.00 0.00 0.00 81 1005.5
20190121034320 23 278 7.0 15.0 0.00 0.00 0.00 80 1005.6
20190121033821 23 280 6.0 14.0 0.00 0.00 0.00 80 1005.6
20190121033321 23 273 5.0 15.0 0.00 0.00 0.00 80 1005.6
20190121032821 23 276 7.0 15.0 0.00 0.00 0.00 80 1005.5
20190121032321 23 269 4.0 11.0 0.00 0.00 0.00 81 1005.5
20190121031821 23 280 5.0 15.0 0.00 0.00 0.00 81 1005.4
20190121031321 23 276 7.0 15.0 0.00 0.00 0.00 80 1005.4
20190121030821 23 273 5.0 18.0 0.00 0.00 0.00 80 1005.5
20190121030321 23 281 5.0 18.0 0.00 0.00 0.00 80 1005.4
20190121025820 23 274 5.0 13.0 0.00 0.00 0.00 80 1005.5
20190121025320 23 276 6.0 14.0 0.00 0.00 0.00 81 1005.4
20190121024820 23 281 7.0 14.0 0.00 0.00 0.00 82 1005.4
20190121024320 23 280 7.0 16.0 0.00 0.00 0.00 82 1005.4
20190121023820 23 276 7.0 16.0 0.00 0.00 0.00 82 1005.4
20190121023321 23 283 6.0 16.0 0.00 0.00 0.00 82 1005.4
20190121022820 23 276 9.0 16.0 0.00 0.00 0.00 82 1005.4
20190121022320 23 280 7.0 16.0 0.00 0.00 0.00 83 1005.4
20190121021821 24 278 5.0 15.0 0.00 0.00 0.00 83 1005.3
20190121021320 23 268 7.0 15.0 0.00 0.00 0.00 83 1005.4
20190121020821 24 275 4.0 14.0 0.00 0.00 0.00 84 1005.3
20190121020320 23 286 4.0 14.0 0.00 0.00 0.00 84 1005.4
20190121015820 24 280 5.0 12.0 0.00 0.00 0.00 84 1005.3
20190121015321 24 275 5.0 12.0 0.00 0.00 0.00 84 1005.3
20190121014821 24 277 2.0 10.0 0.00 0.00 0.00 84 1005.4
20190121014321 24 272 3.0 9.0 0.00 0.00 0.00 85 1005.4
20190121013820 24 284 2.0 7.0 0.00 0.00 0.00 85 1005.4
20190121013320 24 266 1.0 14.0 0.00 0.00 0.00 85 1005.4
20190121012821 24 219 6.0 14.0 0.00 0.00 0.00 84 1005.5
20190121012320 24 274 1.0 9.0 0.00 0.00 0.00 85 1005.5
20190121011820 24 266 2.0 11.0 0.00 0.00 0.00 85 1005.5
20190121011320 24 261 2.0 11.0 0.00 0.00 0.00 85 1005.6
20190121010821 24 281 1.0 7.0 0.00 0.00 0.00 86 1005.6
20190121010320 24 269 1.0 6.0 0.00 0.00 0.00 86 1005.7
20190121005821 24 295 1.0 8.0 0.00 0.00 0.00 86 1005.6
20190121005320 24 244 2.0 12.0 0.00 0.00 0.00 86 1005.6
20190121004820 24 281 2.0 13.0 0.00 0.00 0.00 85 1005.6
20190121004320 24 270 4.0 13.0 0.00 0.00 0.00 84 1005.6
20190121003820 24 263 3.0 11.0 0.00 0.00 0.00 84 1005.5
20190121003320 24 282 3.0 11.0 0.00 0.00 0.00 85 1005.6
20190121002820 24 281 3.0 13.0 0.00 0.00 0.00 84 1005.6
20190121002321 24 279 4.0 13.0 0.00 0.00 0.00 85 1005.6
20190121001820 24 271 2.0 12.0 0.00 0.00 0.00 85 1005.6
20190121001320 24 273 2.0 12.0 0.00 0.00 0.00 85 1005.7
20190121000820 24 253 4.0 12.0 0.00 0.00 0.00 84 1005.8
20190121000321 24 255 4.0 13.0 0.00 0.00 0.00 84 1005.7
20190120235820 24 254 4.0 15.0 0.00 0.00 0.00 84 1005.7
20190120235320 24 283 6.0 15.0 0.00 0.00 0.00 84 1005.7
20190120234820 24 262 4.0 12.0 0.00 0.00 0.00 84 1005.7
20190120234320 24 254 2.0 18.0 0.00 0.00 0.00 84 1005.7
20190120233820 24 277 4.0 18.0 0.00 0.00 0.00 84 1005.8
20190120233320 24 262 5.0 16.0 0.00 0.00 0.00 84 1005.7
20190120232820 24 275 7.0 16.0 0.00 0.00 0.00 84 1005.7
20190120232320 24 260 4.0 9.0 0.00 0.00 0.00 84 1005.7
20190120231320 24 233 5.0 14.0 0.00 0.00 0.00 84 1005.7
20190120230820 24 222 4.0 11.0 0.00 0.00 0.00 83 1005.6
20190120230320 24 257 1.0 11.0 0.00 0.00 0.00 84 1005.6
20190120225820 24 236 2.0 11.0 0.00 0.00 0.00 85 1005.7
20190120225320 24 256 4.0 13.0 0.00 0.00 0.00 85 1005.7
20190120224821 24 218 4.0 13.0 0.00 0.00 0.00 84 1005.7
20190120224321 24 250 3.0 9.0 0.00 0.00 0.00 84 1005.7
20190120223820 24 250 2.0 16.0 0.00 0.00 0.00 85 1005.7
20190120223320 24 241 6.0 16.0 0.00 0.00 0.00 84 1005.8
20190120222820 24 236 5.0 16.0 0.00 0.00 0.00 83 1005.7
20190120222320 24 269 5.0 16.0 0.00 0.00 0.00 84 1005.8
20190120221820 24 244 4.0 16.0 0.00 0.00 0.00 83 1005.8
20190120221320 24 223 4.0 16.0 0.00 0.00 0.00 83 1005.9
20190120220820 24 259 3.0 16.0 0.00 0.00 0.00 83 1005.8
20190120220320 24 225 6.0 17.0 0.00 0.00 0.00 83 1005.9
20190120215821 24 227 8.0 17.0 0.00 0.00 0.00 83 1005.9
20190120215320 24 222 7.0 15.0 0.00 0.00 0.00 82 1005.8
20190120214820 24 265 3.0 14.0 0.00 0.00 0.00 82 1005.9
20190120214320 24 248 4.0 15.0 0.00 0.00 0.00 82 1005.9
20190120213820 24 245 4.0 16.0 0.00 0.00 0.00 82 1005.9
20190120213320 25 269 4.0 16.0 0.00 0.00 0.00 83 1005.9
20190120212820 24 237 4.0 16.0 0.00 0.00 0.00 82 1005.9
20190120212320 24 249 4.0 12.0 0.00 0.00 0.00 83 1005.9
20190120211820 24 240 4.0 19.0 0.00 0.00 0.00 83 1005.9
20190120211320 24 229 6.0 20.0 0.00 0.00 0.00 83 1005.9
20190120210822 24 220 10.0 20.0 0.00 0.00 0.00 83 1006.0
20190120210320 24 249 3.0 17.0 0.00 0.00 0.00 83 1006.0
20190120205821 24 270 5.0 17.0 0.00 0.00 0.00 82 1005.9
20190120205321 25 241 4.0 17.0 0.00 0.00 0.00 82 1006.0
20190120204820 24 223 5.0 19.0 0.00 0.00 0.00 83 1005.9
20190120204321 25 230 5.0 19.0 0.00 0.00 0.00 82 1006.0
20190120203821 24 255 3.0 19.0 0.00 0.00 0.00 83 1005.9
20190120203321 24 224 7.0 19.0 0.00 0.00 0.00 82 1005.9
20190120202820 24 231 5.0 13.0 0.00 0.00 0.00 82 1006.0
20190120202321 24 233 3.0 12.0 0.00 0.00 0.00 83 1005.6
20190120201820 24 232 5.0 23.0 0.00 0.00 0.00 83 1005.6
20190120201321 24 229 5.0 23.0 0.00 0.00 0.00 82 1005.6
20190120200821 24 238 6.0 21.0 0.00 0.00 0.00 82 1005.7
20190120200321 25 229 3.0 13.0 0.00 0.00 0.00 83 1005.6
20190120195821 25 255 5.0 13.0 0.00 0.00 0.00 83 1005.7
20190120195321 25 237 3.0 16.0 0.00 0.00 0.00 84 1005.7
20190120194822 24 275 4.0 16.0 0.00 0.00 0.00 84 1005.8
20190120194320 24 224 6.0 19.0 0.00 0.00 0.00 84 1005.7
20190120193821 24 220 7.0 19.0 0.00 0.00 0.00 84 1005.6
20190120193320 24 232 5.0 15.0 0.00 0.00 0.00 85 1005.6
20190120192821 24 262 4.0 13.0 0.00 0.00 0.00 85 1005.7
20190120192320 24 231 5.0 14.0 0.00 0.00 0.00 84 1005.7
20190120191820 24 276 4.0 14.0 0.00 0.00 0.00 83 1005.6
20190120191321 25 244 5.0 18.0 0.00 0.00 0.00 82 1005.8
20190120190820 24 222 6.0 18.0 0.00 0.00 0.00 82 1005.6
20190120190320 24 226 6.0 16.0 0.00 0.00 0.00 82 1005.6
20190120185821 25 238 5.0 14.0 0.00 0.00 0.00 82 1005.7
20190120185320 25 238 4.0 14.0 0.00 0.00 0.00 82 1005.6
20190120184820 25 253 5.0 20.0 0.00 0.00 0.00 82 1005.7
20190120184322 24 227 6.0 20.0 0.00 0.00 0.00 81 1005.6
20190120183820 24 230 6.0 21.0 0.00 0.00 0.00 81 1005.6